Miscellaneous Local Product
Issued by NWS Hastings, NE

Home | Current Version | Previous Version | Graphics & Text | Print | Product List | Glossary On
Versions: 1 2 3 4 5 6 7 8 9 10 11 12 13 14 15 16 17 18 19 20 21 22 23 24 25 26 27 28 29 30 31 32 33 34 35 36 37 38 39 40 41 42 43 44 45 46 47 48 49 50
423
AXUS43 KGID 310802
MISGRI

GID CWA HOURLY WEATHER ROUNDUP
NATIONAL WEATHER SERVICE HASTINGS NE
300 AM CDT WED AUG 31 2016

NOTE: "FAIR" INDICATES FEW OR NO CLOUDS BELOW 12,000 FEET WITH NO
SIGNIFICANT WEATHER AND/OR OBSTRUCTIONS TO VISIBILITY.

...SOUTH CENTRAL NEBRASKA...

CITY           SKY/WX    TMP DP  RH WIND       PRES   REMARKS
GRAND ISLAND   FOG       66  65  96 N6        30.20S VSB 1/2
HASTINGS       CLOUDY    67  66  97 E3        30.19F FOG
KEARNEY        CLOUDY    66  64  94 CALM      30.19F VSB 1/4
ORD            FOG       62  61  96 CALM      30.21R VSB 1/4
YORK           MOCLDY    66  66 100 CALM      30.18S FOG
AURORA         MOCLDY    67  67 100 CALM      30.18F FOG
LEXINGTON      FOG       64  62  95 N3        30.22R VSB 1/2
HOLDREGE       CLOUDY    67  65  96 CALM      30.21S FOG
HEBRON         CLOUDY    69  68  98 CALM      30.16F FOG

...NEBRASKA PANHANDLE...

CITY           SKY/WX    TMP DP  RH WIND       PRES   REMARKS
CHADRON        CLEAR     61  54  77 CALM      30.22F
ALLIANCE       CLEAR     57  56  96 CALM      30.26F
SCOTTSBLUFF    CLEAR     58  55  90 E6        30.26F
SIDNEY         MOCLDY    62  60  93 CALM      30.29F

...WESTERN AND NORTH CENTRAL NEBRASKA...

CITY           SKY/WX    TMP DP  RH WIND       PRES   REMARKS
VALENTINE      CLEAR     64  60  87 SW3       30.23S
AINSWORTH      CLEAR     60  60 100 CALM      30.24S FOG
ONEILL         FOG       64  63  95 CALM      30.22F VSB 1/4
BROKEN BOW     FOG       61  61 100 N6        30.22S VSB 1/4
IMPERIAL       CLOUDY    66  64  93 SE7       30.24F
NORTH PLATTE   CLOUDY    63  61  93 E5        30.24R FOG
MCCOOK         LGT RAIN  67  63  87 E7        30.22S

...EASTERN NEBRASKA...

CITY           SKY/WX    TMP DP  RH WIND       PRES   REMARKS
NORFOLK        CLOUDY    64  62  93 CALM      30.19S FOG
SO SIOUX CITY  CLOUDY    69  65  86 E3        30.19S
TEKAMAH        MOCLDY    67  66  97 N7        30.17S FOG
COLUMBUS       CLOUDY    64  59  82 CALM      30.19S
ALBION           N/A     63  61  93 CALM      30.20S
OMAHA EPPLEY   CLOUDY    72  68  87 NW3       30.16S
MILLARD        CLOUDY   N/A N/A N/A CALM      30.16S
LINCOLN        CLOUDY    70  68  93 N3        30.17F
NEBRASKA CITY  CLOUDY    70  70 100 NE5       30.16R
BEATRICE       CLOUDY    69  69  99 NE5       30.15F FOG
FALLS CITY     CLOUDY    72  70  93 N3        30.13F

...NORTHERN KANSAS...

CITY           SKY/WX    TMP DP  RH WIND       PRES   REMARKS
GOODLAND       CLOUDY    63  62  97 S6        30.24F
HILL CITY      PTCLDY    65  63  93 NW3       30.21S
NORTON         CLOUDY    68  64  88 S5        30.20S
SMITH CENTER   MOCLDY    66  66 100 CALM      30.18S FOG
BELOIT         PTCLDY    64  64 100 N3        30.14S
HAYS           CLOUDY    68  61  77 CALM      30.18S
RUSSELL        CLOUDY    69  69 100 N5        30.15F FOG
CONCORDIA      CLOUDY    70  68  93 CALM      30.15F FOG
SALINA         MOCLDY    72  70  93 CALM      30.13F
TOPEKA         LGT RAIN  69  67  93 N3        30.13F



USA.gov is the U.S. government's official web portal to all federal, state and local government web resources and services.